Theta_e
345 346 344 343 343 341 339 335 334 332 330 328 325 325 325 328 329 330 331 346 351 351 354 356 355 355 355 354 353 353 353 353 353 351 349 349 348 349 350 349 349 348 347
346 345 344 342 341 340 339 334 331 330 328 326 324 326 327 329 331 332 336 340 350 349 351 354 356 356 356 356 354 353 352 351 353 352 350 349 349 348 349 349 349 348 347
347 346 342 342 342 340 337 334 330 328 326 328 327 326 328 331 335 337 337 336 342 348 348 351 354 356 357 357 356 355 353 351 352 351 350 349 349 348 348 349 349 349 347
350 345 344 341 341 339 336 334 331 327 328 327 327 330 331 333 337 339 340 342 339 341 346 350 352 354 356 357 357 357 355 352 351 350 350 349 349 348 348 348 348 348 347
350 347 344 344 340 339 336 333 329 325 325 330 331 330 331 335 338 341 340 341 342 343 342 346 350 350 353 355 357 357 356 353 351 350 350 349 349 349 348 348 348 348 347
345 345 345 342 341 338 337 332 332 330 328 329 332 331 329 332 337 338 342 343 342 341 341 341 341 345 349 352 354 356 357 356 352 351 350 349 349 349 348 348 348 347 347
344 342 344 343 341 339 338 335 334 333 331 329 327 326 328 331 332 335 340 342 342 343 341 341 340 341 343 348 349 351 355 357 357 354 349 347 347 349 348 348 348 347 347
343 342 341 342 343 341 339 335 334 330 331 331 328 323 320 324 330 337 338 340 340 340 339 340 341 341 339 340 344 348 352 355 356 355 350 346 347 348 349 347 346 346 346
345 344 344 342 343 343 340 337 335 334 330 328 330 324 319 317 321 332 336 339 338 336 337 339 341 343 341 339 341 344 347 347 352 354 351 347 348 348 347 346 345 346 346
340 344 345 344 343 344 342 340 338 336 333 329 328 331 326 323 320 319 329 333 336 336 334 336 338 339 339 338 340 343 341 341 345 348 348 348 347 347 347 346 346 345 346
336 341 342 343 343 342 342 342 339 335 335 334 331 328 328 329 327 321 320 327 329 332 336 335 336 336 336 334 333 334 335 336 337 339 339 340 342 344 346 345 345 345 346
328 333 339 341 340 341 341 342 340 338 335 335 333 331 329 327 327 323 319 322 326 326 329 333 332 331 329 330 333 334 332 331 331 332 332 334 337 340 342 344 345 346 349
325 328 333 338 340 340 341 342 339 338 336 335 334 332 332 330 330 330 323 319 321 322 321 325 327 327 329 327 330 334 335 331 329 327 327 329 331 334 336 338 341 344 347
323 326 330 334 339 340 339 338 339 339 338 336 335 334 332 332 332 330 329 321 315 315 317 319 325 325 328 330 331 333 334 331 327 326 326 326 327 329 330 333 335 337 340
324 326 328 331 334 336 337 336 335 336 332 327 325 325 323 322 334 333 331 327 323 312 314 319 321 327 327 330 334 335 335 332 330 327 325 325 325 325 327 328 329 331 332
321 321 322 324 326 329 329 329 329 330 329 328 328 326 323 323 323 325 328 325 323 318 314 319 322 327 329 331 333 334 333 331 329 327 327 325 323 323 323 325 326 328 329
318 318 319 321 323 325 324 321 322 324 320 321 324 322 323 323 322 326 329 326 324 322 319 319 323 326 326 326 328 333 333 331 330 327 328 325 322 321 321 322 324 325 324
317 317 318 319 321 324 323 320 320 322 317 317 321 321 320 321 326 328 329 326 326 326 323 319 321 323 325 326 326 324 327 333 331 330 324 322 321 320 322 321 320 319 318
312 316 317 317 319 320 323 322 319 321 318 320 321 322 323 323 325 327 330 327 326 328 326 324 321 322 323 321 321 322 324 326 332 330 322 319 317 318 318 317 316 316 314
307 310 316 317 318 321 322 323 322 320 319 322 321 320 320 322 324 327 329 327 326 326 323 322 319 316 316 316 318 317 317 321 323 329 325 321 317 317 316 316 317 317 314
305 307 310 316 317 319 320 321 319 318 316 317 320 322 322 325 326 327 329 325 325 321 319 315 310 307 305 305 306 314 315 318 320 321 321 323 322 320 319 316 319 318 313
304 305 308 311 317 320 310 308 311 317 319 321 321 325 329 325 321 317 317 317 320 317 313 310 307 305 304 303 309 314 317 315 314 320 320 321 323 322 326 323 316 314 310
301 302 305 311 314 317 307 305 308 314 315 316 320 324 323 326 318 318 311 310 309 308 311 309 303 302 305 309 314 315 314 316 316 320 322 317 325 323 328 326 314 309 309
298 302 305 309 314 318 307 302 305 311 313 315 321 319 317 314 313 312 311 310 310 309 309 309 307 308 312 315 316 317 317 317 319 319 322 315 324 324 323 321 308 308 306
298 297 300 303 310 315 304 303 307 314 314 317 320 319 317 317 306 306 317 316 314 315 312 307 305 305 303 305 310 316 313 317 316 313 319 317 317 321 320 316 312 306 304
297 299 301 302 307 312 303 303 305 312 312 317 318 317 310 314 300 303 313 313 311 311 314 312 310 306 302 305 303 316 318 318 319 317 317 319 320 322 317 319 312 310 308
Wind_Speed
8 7 7 7 8 8 8 8 7 7 8 9 8 9 8 7 8 5 4 13 17 17 18 17 17 16 15 14 14 13 14 14 15 14 13 13 14 15 15 15 14 14 13
9 8 7 8 9 9 8 7 9 9 10 10 12 12 12 9 9 8 5 6 18 20 17 16 16 15 15 16 15 14 14 13 14 14 14 14 15 16 16 16 15 15 15
10 10 8 9 9 8 9 7 8 5 4 4 9 7 7 9 10 11 8 6 8 16 15 16 15 15 16 16 16 15 13 12 13 14 15 15 15 16 16 16 16 16 16
13 11 9 9 9 8 7 6 6 7 8 7 7 8 8 6 6 7 6 5 6 6 11 15 14 14 15 15 16 15 12 12 13 15 14 15 16 16 16 16 17 17 17
14 12 11 10 8 9 7 7 6 5 6 8 9 8 8 6 6 8 8 6 6 6 6 9 16 16 14 14 14 14 12 13 13 14 15 16 16 16 17 17 17 17 17
11 9 9 8 7 7 9 7 10 6 7 9 9 9 6 5 5 6 9 7 7 8 6 7 5 7 12 13 12 12 12 11 12 14 15 16 16 16 17 18 18 18 19
9 8 10 10 9 12 12 11 10 11 10 5 3 4 4 6 5 6 6 9 9 9 6 7 4 4 4 12 10 10 12 12 13 14 14 15 15 16 16 18 18 19 19
9 11 11 13 12 12 15 11 12 7 8 8 10 1 4 6 4 7 8 9 10 7 7 6 6 7 6 4 5 11 12 13 13 13 14 14 13 16 15 18 20 20 20
8 10 13 13 16 12 12 14 15 18 14 6 12 6 3 6 2 4 9 9 8 4 5 5 6 5 5 5 4 5 10 10 12 14 13 12 10 13 16 16 17 18 19
11 12 12 13 14 12 15 13 13 15 17 14 4 11 4 4 5 2 3 5 6 7 6 3 5 5 5 3 6 7 8 9 12 14 16 12 11 13 13 15 16 15 16
9 13 13 14 15 12 17 16 13 14 15 15 14 7 12 4 3 3 4 4 1 4 5 5 5 5 5 3 3 6 10 11 12 10 7 11 14 14 14 16 16 15 15
7 11 12 12 15 15 16 17 16 17 15 15 13 14 12 12 10 4 1 3 6 3 4 4 5 5 4 5 7 11 12 10 11 10 11 7 12 13 15 17 15 14 16
7 11 12 10 11 15 16 16 18 18 15 14 17 14 15 15 14 10 4 3 4 3 2 3 5 4 4 5 6 8 9 13 8 9 11 7 10 14 15 13 14 12 14
6 10 12 13 13 14 14 15 16 15 14 14 23 7 6 11 13 11 12 6 1 1 1 3 2 4 4 5 6 11 6 10 9 12 9 10 11 11 13 11 10 8 8
6 7 11 15 14 14 14 11 10 14 11 6 7 6 7 3 14 8 9 8 8 6 7 5 3 4 3 3 5 4 5 8 10 10 9 9 10 10 7 4 7 6 3
6 7 7 11 16 14 11 9 8 7 9 7 5 9 8 12 9 16 11 6 5 5 4 5 5 3 5 2 5 6 7 7 8 10 9 8 6 6 3 4 5 6 4
8 7 7 8 12 14 8 7 8 9 8 9 9 10 14 12 11 10 12 4 4 5 5 2 2 4 4 4 5 4 4 5 5 10 7 5 5 4 1 1 1 2 5
12 8 7 8 9 11 8 8 9 10 11 8 9 11 12 9 11 16 11 8 7 5 5 6 3 4 5 6 4 4 4 4 4 8 5 4 4 4 6 9 6 5 5
11 11 9 9 9 11 11 12 9 9 11 11 10 14 14 13 13 13 11 7 5 5 4 4 4 2 3 2 1 2 2 2 3 1 2 2 4 7 8 9 7 5 5
13 10 10 11 10 9 11 12 12 11 11 12 12 12 13 12 19 17 11 7 6 7 5 4 3 3 2 2 2 1 3 1 3 2 2 2 4 6 7 5 5 4 4
14 12 9 11 12 9 8 9 8 10 10 7 7 7 11 11 14 15 8 8 9 6 5 4 3 2 2 2 3 4 3 3 2 2 1 2 3 3 4 6 5 5 5
9 8 7 8 11 7 8 8 4 4 6 8 10 10 10 13 14 16 14 15 13 8 6 5 4 4 4 3 3 3 4 2 1 1 1 2 4 3 3 3 8 8 7
11 13 9 7 11 11 7 7 1 2 8 12 13 7 3 3 10 10 12 13 10 10 9 8 6 5 5 6 5 4 3 3 4 3 3 3 2 2 2 3 10 9 9
13 6 7 8 7 8 12 10 10 3 8 10 14 11 7 7 6 10 9 7 6 6 6 5 6 7 5 7 6 4 4 2 3 3 5 2 3 2 2 3 12 12 9
9 6 9 10 9 8 12 10 9 4 5 11 9 10 10 9 10 15 10 8 7 3 4 6 8 7 9 8 5 4 3 3 2 1 1 3 2 2 1 3 6 12 9
13 10 12 12 14 9 13 12 1 1 6 6 6 4 11 11 13 14 9 8 7 4 6 4 2 2 4 4 10 4 4 5 2 2 2 4 4 4 3 3 5 5 5
Wind_Direction
203 204 211 205 205 203 203 211 211 214 222 224 228 228 235 232 240 239 221 236 209 217 220 213 213 212 217 226 232 231 228 224 222 227 229 232 236 240 240 238 234 233 230
205 206 211 226 216 213 211 216 221 216 223 212 223 213 220 226 226 228 227 224 207 213 219 219 220 218 221 227 233 233 234 225 226 226 228 231 234 237 241 244 239 235 231
211 212 209 208 222 234 225 218 226 233 237 261 256 255 249 240 225 222 210 207 220 221 219 220 222 221 223 229 234 235 235 231 229 228 231 230 237 240 239 240 242 237 235
209 208 217 217 216 215 218 230 234 238 229 221 244 242 239 235 253 260 237 215 203 215 233 235 228 226 225 228 237 238 234 229 230 231 233 237 236 237 239 237 240 240 235
211 213 217 220 202 208 212 215 218 205 234 241 233 239 237 230 234 254 251 238 225 220 218 225 229 229 223 225 236 242 235 233 232 234 233 238 239 241 242 236 234 234 237
225 225 230 227 212 203 212 207 217 218 227 235 244 238 233 240 225 229 241 234 228 226 224 232 227 239 231 230 231 237 243 240 240 239 238 240 242 242 242 241 236 230 232
236 232 238 236 227 228 220 209 216 214 230 201 180 265 252 236 239 238 246 238 232 231 224 234 229 219 228 232 228 228 241 240 241 243 245 243 244 248 250 244 240 235 229
231 225 221 238 229 232 234 212 207 214 229 191 223 139 252 256 249 225 223 230 224 209 211 217 224 211 205 211 223 223 230 245 253 251 249 248 241 245 250 253 248 241 229
251 232 235 233 240 232 229 227 218 218 230 216 210 161 199 230 217 214 218 212 220 204 222 217 224 207 181 181 206 240 244 255 269 267 267 271 269 266 265 261 257 238 240
281 271 245 242 235 241 242 231 233 225 221 226 204 231 207 149 211 280 281 225 201 217 213 182 202 195 191 196 239 261 271 281 288 285 280 292 313 304 289 266 248 236 238
267 267 264 254 246 233 244 244 229 228 226 225 221 200 225 222 235 171 219 232 202 214 194 182 186 198 197 181 248 237 248 255 264 279 291 298 290 284 276 272 260 248 242
289 279 263 257 259 245 239 243 241 236 227 228 222 217 215 211 209 184 186 225 208 231 187 184 183 196 193 208 221 228 237 256 260 250 260 273 270 273 274 270 269 263 260
296 290 279 260 258 260 242 238 240 239 226 229 229 225 223 225 221 217 155 196 197 231 204 209 212 215 223 227 231 231 245 249 246 254 261 280 294 289 283 274 269 265 264
271 294 291 277 265 261 266 253 245 246 238 230 226 231 280 265 222 208 203 156 95 233 338 226 231 211 225 237 240 232 240 246 257 262 277 279 271 275 269 272 268 271 276
263 281 298 292 273 263 262 262 258 257 238 195 172 165 236 302 278 229 230 206 176 180 222 233 197 211 230 235 252 247 232 240 245 259 279 284 273 259 273 286 279 262 223
259 273 285 292 286 270 249 237 233 216 214 227 220 209 206 265 269 273 228 186 166 145 185 202 208 160 202 249 246 238 239 246 264 270 259 255 257 275 277 306 272 256 181
265 265 267 279 284 285 255 230 215 201 180 179 180 192 206 205 225 238 223 195 147 150 168 207 171 192 225 232 261 235 248 253 252 256 253 231 244 234 57 32 302 260 145
299 273 266 268 277 282 250 229 213 191 172 179 191 191 193 209 240 191 193 191 173 153 135 192 168 178 203 238 234 240 243 237 254 268 237 210 215 158 132 113 115 116 110
305 297 270 263 265 271 264 238 219 212 207 211 183 177 172 169 112 228 215 196 127 161 156 154 180 174 213 215 237 231 239 275 270 240 113 196 175 156 143 124 132 146 149
291 300 286 273 263 261 261 253 234 220 220 220 186 173 170 172 134 224 199 173 169 172 176 176 139 172 171 228 128 150 45 47 301 297 148 158 195 168 142 137 129 154 148
276 274 286 296 263 255 261 261 243 216 208 211 192 200 199 194 188 185 159 167 168 172 166 137 127 102 188 221 184 199 140 162 243 269 21 155 211 190 164 152 133 143 169
271 265 269 287 273 253 261 273 312 330 308 305 237 237 229 178 171 156 151 147 157 152 140 140 166 163 205 219 207 189 127 93 319 112 77 291 201 207 175 134 146 161 169
284 279 256 261 271 271 215 197 282 308 283 278 285 261 216 151 140 140 134 135 138 144 159 159 159 175 184 198 198 167 146 164 209 229 126 268 208 213 164 147 149 146 140
277 267 292 259 250 262 249 151 132 297 280 266 281 220 152 151 156 127 120 123 137 154 154 155 163 174 182 189 195 144 141 207 262 232 154 201 184 172 58 33 120 123 123
291 277 279 267 274 246 231 243 148 197 291 280 242 207 141 157 157 124 126 128 142 152 137 179 191 184 185 173 145 134 167 188 264 41 132 141 196 116 100 87 96 98 104
279 266 263 243 238 238 207 219 197 46 289 273 209 183 170 151 147 131 130 143 140 155 123 125 154 221 233 191 192 168 195 211 150 57 221 157 161 157 119 63 87 100 96